Powrót do katalogu

NOAA 16 DEB

AktywnySSO
NORAD 42384·DEBRIS·🇺🇸 United States

Wystrzelony Sep 21, 2000 z Vandenberg Space Force Base

Loading…

Następne Przeloty (najbliższe 24 godziny)

TLE

ŚwieżeSource: Space-Track

Epoka: Sep 13, 2026, 11:04 UTC

1 42384U 00055SC  26256.46120271  .00002899  00000-0  10407-2 0  9997
2 42384  98.6602 334.6185 0013007  56.2731 303.9692 14.34603637544630

Śledź NOAA 16 DEB w czasie rzeczywistym z AllMySat

Download on the App Store